[[{"header":{"parameterUnit":"m.s-1","parameterCategory":1,"la1":30.2991,"la2":30.254,"lo1":-89.0895,"lo2":-89.0444,"dy":0.0017,"dx":0.0017,"nx":28,"ny":28,"refTime":"2025-11-21T09:00:00:Z","depth":0,"parameterNumber":2,"parameterNumberName":"U-component_of_WINDS"},"data":[0,0,0,0,0,0,0,0,0,0,0,0,0,0,0,0,0,0,0,0,0,0,0,0,0,0,0,0,0,0,0,0,0,0,0,0,0,0,0,0,0,0,0,0,0,0,0,0,0,0,0,0,0,0,0,0,0,0,-2.7638,-2.7638,0,-2.7708,-2.7709,-2.771,-2.7699,-2.7698,-2.7697,-2.7696,-2.7767,-2.777,-2.7773,0,0,0,0,0,0,0,0,0,0,0,0,0,-2.7495,-2.7497,-2.7637,-2.7638,-2.7639,-2.7708,-2.7709,-2.771,-2.77,-2.7698,-2.7697,-2.7695,-2.7766,-2.777,-2.7773,0,0,0,0,0,0,0,0,0,0,0,0,0,-2.756,-2.7498,-2.7637,-2.7642,-2.7644,-2.7708,-2.7709,-2.771,-2.77,-2.7698,-2.7696,-2.7695,-2.7765,-2.7769,-2.7774,-2.7837,0,0,-2.7788,-2.779,0,0,0,0,0,0,0,0,-2.7556,-2.7565,-2.7641,-2.7642,-2.7644,-2.7693,-2.7685,-2.7753,-2.77,-2.7678,-2.7696,-2.7694,-2.7744,-2.775,-2.7767,-2.7841,-2.7844,-2.7788,-2.7791,-2.7793,-2.7794,0,0,0,0,0,0,0,-2.7552,-2.7562,-2.7665,-2.7642,-2.7644,-2.7641,-2.7649,-2.7698,-2.772,-2.768,-2.768,-2.7688,-2.7744,-2.7763,-2.7769,-2.7845,-2.7788,-2.7792,-2.7795,-2.7796,-2.7976,-2.7977,0,0,0,0,0,0,-2.7546,-2.7558,-2.7663,-2.7668,-2.7595,-2.7645,-2.7654,-2.7679,-2.772,-2.7724,-2.769,-2.7687,-2.7756,-2.7764,-2.7771,-2.7848,-2.7793,-2.7797,-2.7799,-2.7973,-2.7976,-2.7978,0,0,0,0,0,0,-2.7543,-2.7555,-2.766,-2.7613,-2.7626,-2.765,-2.7678,-2.7681,-2.77,-2.7727,-2.7731,-2.7704,-2.7755,-2.7765,-2.7821,-2.7851,-2.7799,-2.7803,-2.7971,-2.7974,-2.7977,-2.8003,0,0,0,0,0,0,-2.7539,-2.7554,-2.7578,-2.7614,-2.7629,-2.7709,-2.768,-2.7684,-2.7708,-2.7705,-2.7742,-2.7746,-2.7754,-2.7815,-2.7826,-2.7856,-2.7807,-2.7968,-2.7972,-2.7976,-2.7999,-2.8006,-2.8012,0,0,0,0,0,-2.7534,-2.7582,-2.7579,-2.7592,-2.7659,-2.7711,-2.7719,-2.7728,-2.771,-2.7734,-2.7752,-2.7745,-2.7846,-2.7821,-2.7833,-2.7865,-2.7967,-2.7971,-2.7976,-2.7996,-2.8005,-2.8012,0,0,0,0,0,0,-2.7548,-2.7587,-2.7584,-2.7645,-2.7675,-2.7709,-2.7739,-2.7737,-2.7772,-2.7768,-2.7778,-2.7786,-2.7843,-2.786,-2.7831,-2.7929,-2.7904,-2.7911,-2.7915,-2.7924,-2.793,-2.7924,-2.781,0,0,0,0,0,-2.7559,-2.7597,-2.7629,-2.768,-2.7695,-2.7715,-2.7738,-2.7743,-2.7773,-2.7786,-2.7807,-2.7838,-2.7876,-2.7901,-2.7939,-2.8003,-2.8011,-2.8031,-2.8038,-2.8043,-2.8048,-2.8084,-2.8094,-2.7993,-2.7993,-2.7993,0,0,-2.758,-2.7606,-2.763,-2.7684,-2.7707,-2.7747,-2.7725,-2.7768,-2.7798,-2.7792,-2.7846,-2.7864,-2.7899,-2.7959,-2.7987,-2.7975,-2.8079,-2.8049,-2.8053,-2.8055,-2.809,-2.8099,-2.8108,-2.7996,-2.7996,-2.7995,0,0,-2.764,-2.7664,-2.7709,-2.7733,-2.777,-2.7783,-2.7794,-2.783,-2.7841,-2.7896,-2.7893,-2.7929,-2.7996,-2.8021,-2.8042,-2.8115,-2.8109,-2.8127,-2.816,-2.8195,-2.8202,-2.8209,-2.8235,-2.8244,-2.8133,-2.8133,-2.8133,0,-2.7661,-2.7721,-2.7732,-2.7776,-2.78,-2.7798,-2.7844,-2.7868,-2.7915,-2.7931,-2.7918,-2.8003,-2.8026,-2.8092,-2.8111,-2.8128,-2.8141,-2.8121,-2.8201,-2.8208,-2.8214,-2.8238,-2.8248,-2.8135,-2.8135,-2.8134,-2.8134,0,-2.7746,-2.7788,-2.782,-2.7866,-2.7894,-2.7939,-2.7957,-2.7985,-2.7989,-2.8004,-2.8061,-2.8089,-2.8132,-2.815,-2.8153,-2.8218,-2.8209,-2.8198,-2.8172,-2.8225,-2.8248,-2.8258,-2.8137,-2.8137,-2.8136,-2.8136,0,0,-2.7812,-2.7866,-2.7878,-2.7899,-2.7941,-2.7973,-2.8019,-2.8063,-2.8086,-2.8119,-2.8157,-2.8216,-2.8207,-2.8231,-2.8238,-2.8269,-2.8324,-2.8254,-2.8255,-2.8265,-2.8397,-2.8403,-2.8414,-2.8322,-2.8324,-2.8326,-2.8394,0,-2.7874,-2.7954,-2.7967,-2.8038,-2.8077,-2.8078,-2.8118,-2.8148,-2.8165,-2.8201,-2.8219,-2.826,-2.8245,-2.826,-2.8291,-2.8311,-2.8351,-2.8307,-2.8357,-2.8359,-2.8346,-2.8426,-2.8432,-2.8495,-2.8403,-2.8405,-2.8406,0,-2.7956,-2.7993,-2.8067,-2.8105,-2.8122,-2.8158,-2.8199,-2.8234,-2.8269,-2.8279,-2.8308,-2.8312,-2.836,-2.8335,-2.8402,-2.8372,-2.8394,-2.8408,-2.841,-2.8413,-2.8383,-2.8429,-2.8515,-2.8524,-2.842,-2.8419,-2.8418,0,-2.7995,-2.8064,-2.8117,-2.8136,-2.8182,-2.8207,-2.8227,-2.8261,-2.8287,-2.8324,-2.8341,-2.8383,-2.8405,-2.8438,-2.8454,-2.8434,-2.852,-2.8496,-2.8528,-2.8528,-2.8544,-2.8542,-2.8632,-2.8562,-2.8562,-2.8562,-2.8561,0,-2.8062,-2.8107,-2.8135,-2.8168,-2.8219,-2.8235,-2.8286,-2.8306,-2.8336,-2.8373,-2.8378,-2.8412,-2.8432,-2.847,-2.8483,-2.8536,-2.8547,-2.8556,-2.8558,-2.8554,-2.8553,-2.8566,-2.8562,-2.8564,-2.8564,-2.8563,-2.8563,0,-2.8112,-2.8133,-2.8192,-2.8232,-2.8243,-2.8279,-2.8313,-2.8346,-2.8364,-2.8411,-2.8423,-2.8451,-2.8496,-2.8516,-2.8571,-2.858,-2.864,-2.8641,-2.8628,-2.8628,-2.866,-2.8656,-2.876,-2.8774,-2.8697,-2.8697,-2.8698,0,-2.8151,-2.8187,-2.8231,-2.8257,-2.8278,-2.8319,-2.8346,-2.8364,-2.8392,-2.8436,-2.8463,-2.8509,-2.8546,-2.8619,-2.8644,-2.8687,-2.8687,-2.8721,-2.8693,-2.8688,-2.8686,-2.8682,-2.8686,-2.8725,-2.8725,-2.8726,-2.8727,0,-2.8219,-2.8229,-2.8267,-2.831,-2.8343,-2.8377,-2.8411,-2.8432,-2.8456,-2.8487,-2.8534,-2.8563,-2.8621,-2.8666,-2.8711,-2.8733,-2.8734,-2.8736,-2.8745,-2.874,-2.8731,-2.8735,-2.864,-2.8732,-2.8732,-2.8731,-2.8731,-2.8731,-2.8264,-2.8296,-2.8332,-2.8376,-2.8404,-2.8436,-2.8469,-2.8492,-2.8531,-2.858,-2.8589,-2.8639,-2.8675,-2.8736,-2.876,-2.88,-2.8791,-2.8805,-2.8808,-2.8811,-2.8812,-2.8727,-2.8808,-2.8808,-2.8808,-2.8808,-2.8808,0,-2.833,-2.8355,-2.8395,-2.8443,-2.8478,-2.8478,-2.8516,-2.8545,-2.8589,-2.8624,-2.8661,-2.8715,-2.876,-2.879,-2.8836,-2.8862,-2.8863,-2.8873,-2.887,-2.8875,-2.8818,-2.8804,-2.8871,-2.8871,-2.8871,-2.8871,-2.8871,-2.8871,-2.8368,-2.8422,-2.8436,-2.8504,-2.8529,-2.8578,-2.86,-2.863,-2.8658,-2.8719,-2.8756,-2.8776,-2.881,-2.8858,-2.89,-2.8908,-2.8923,-2.8933,-2.894,-2.8885,-2.8879,-2.8872,-2.8859,-2.8937,-2.8937,-2.8994,-2.8994,-2.8995]},{"header":{"parameterUnit":"m.s-1","parameterCategory":1,"la1":30.2991,"la2":30.254,"lo1":-89.0895,"lo2":-89.0444,"dy":0.0017,"dx":0.0017,"nx":28,"ny":28,"refTime":"2025-11-21T09:00:00:Z","depth":0,"parameterNumber":3,"parameterNumberName":"V-component_of_WINDS"},"data":[0,0,0,0,0,0,0,0,0,0,0,0,0,0,0,0,0,0,0,0,0,0,0,0,0,0,0,0,0,0,0,0,0,0,0,0,0,0,0,0,0,0,0,0,0,0,0,0,0,0,0,0,0,0,0,0,0,0,3.4308,3.431,0,3.4441,3.4443,3.4444,3.4474,3.4473,3.4472,3.4471,3.4603,3.4608,3.4612,0,0,0,0,0,0,0,0,0,0,0,0,0,3.4079,3.4083,3.4308,3.431,3.4311,3.4441,3.4443,3.4444,3.4474,3.4473,3.4472,3.447,3.4602,3.4607,3.4612,0,0,0,0,0,0,0,0,0,0,0,0,0,3.4192,3.4084,3.4308,3.4342,3.4346,3.444,3.4443,3.4445,3.4474,3.4473,3.4471,3.447,3.46,3.4606,3.4613,3.4682,0,0,3.4633,3.4636,0,0,0,0,0,0,0,0,3.4185,3.42,3.4335,3.434,3.4345,3.4439,3.441,3.4524,3.4474,3.4425,3.4471,3.4469,3.455,3.456,3.4588,3.4688,3.4694,3.4634,3.4638,3.4641,3.4642,0,0,0,0,0,0,0,3.4177,3.4194,3.4361,3.4337,3.4343,3.435,3.4365,3.4432,3.4494,3.443,3.4432,3.4448,3.4552,3.4582,3.4591,3.4696,3.4634,3.4639,3.4643,3.4646,3.4863,3.4864,0,0,0,0,0,0,3.4164,3.4188,3.4356,3.4365,3.426,3.4355,3.4372,3.441,3.4493,3.4504,3.4449,3.4448,3.4571,3.4584,3.4596,3.4685,3.464,3.4647,3.465,3.4861,3.4863,3.4865,0,0,0,0,0,0,3.4159,3.4179,3.4351,3.4277,3.43,3.4361,3.4404,3.4414,3.4444,3.4507,3.4518,3.4468,3.4571,3.4587,3.4662,3.469,3.465,3.4656,3.4859,3.4862,3.4864,3.4862,0,0,0,0,0,0,3.4152,3.4177,3.4203,3.4277,3.4303,3.4414,3.4406,3.4417,3.4455,3.4456,3.4528,3.4539,3.4571,3.4652,3.4668,3.4698,3.4661,3.4857,3.486,3.4863,3.486,3.4864,3.4868,0,0,0,0,0,3.4144,3.4196,3.4204,3.4225,3.4338,3.4416,3.4431,3.4467,3.4457,3.4485,3.4527,3.4537,3.4684,3.4659,3.4678,3.4711,3.4855,3.4859,3.4863,3.4858,3.4863,3.4868,0,0,0,0,0,0,3.4121,3.4206,3.4217,3.4294,3.4348,3.4421,3.4456,3.4471,3.4528,3.4526,3.4568,3.4584,3.4657,3.4691,3.4661,3.4784,3.4769,3.4777,3.4759,3.4764,3.4768,3.4759,3.4666,0,0,0,0,0,3.4125,3.4182,3.4253,3.4314,3.4341,3.4394,3.4429,3.4453,3.451,3.4532,3.4579,3.4633,3.4692,3.473,3.4787,3.4865,3.4882,3.4897,3.4901,3.4904,3.4911,3.4958,3.4966,3.4878,3.4878,3.4878,0,0,3.4134,3.4187,3.422,3.4311,3.4356,3.4414,3.4413,3.4473,3.4517,3.4541,3.4616,3.4652,3.4715,3.4793,3.4829,3.4823,3.4939,3.4909,3.4911,3.4916,3.4963,3.4971,3.4978,3.4881,3.4881,3.488,0,0,3.418,3.4226,3.4284,3.4329,3.4398,3.4433,3.4447,3.4519,3.4545,3.4621,3.4642,3.4694,3.4793,3.4839,3.4875,3.4943,3.4955,3.496,3.4982,3.5027,3.5034,3.5041,3.5068,3.5076,3.4966,3.4966,3.4966,0,3.4182,3.4272,3.4311,3.4373,3.4413,3.444,3.45,3.4541,3.4624,3.4652,3.4645,3.4774,3.4817,3.4908,3.4925,3.4952,3.4971,3.4952,3.503,3.5037,3.5044,3.507,3.5079,3.4967,3.4967,3.4967,3.4967,0,3.4272,3.4334,3.4372,3.4455,3.45,3.4559,3.4609,3.4649,3.467,3.4706,3.4785,3.4839,3.491,3.4933,3.4952,3.5027,3.5022,3.5022,3.5009,3.5052,3.5077,3.5087,3.4967,3.4967,3.4967,3.4967,0,0,3.4306,3.4413,3.4427,3.4466,3.4545,3.4593,3.4655,3.4727,3.4762,3.4818,3.4873,3.4959,3.4961,3.5002,3.5027,3.5066,3.5121,3.5062,3.5064,3.5073,3.5209,3.521,3.5221,3.5129,3.5131,3.5133,3.5205,0,3.4364,3.4477,3.4517,3.461,3.4669,3.4697,3.4752,3.4806,3.4843,3.4898,3.4938,3.5,3.4996,3.5022,3.5062,3.5105,3.5149,3.51,3.5181,3.5183,3.5166,3.5234,3.5234,3.53,3.5215,3.5216,3.5218,0,3.4446,3.4508,3.4608,3.4684,3.471,3.4758,3.4829,3.4881,3.4944,3.4968,3.5016,3.5039,3.5106,3.5089,3.5183,3.5149,3.5185,3.5211,3.5215,3.5225,3.5204,3.5248,3.5321,3.5332,3.5233,3.5232,3.5231,0,3.4465,3.4572,3.4647,3.4679,3.4768,3.4802,3.4841,3.4903,3.4945,3.5006,3.5034,3.5101,3.5138,3.519,3.5231,3.5214,3.5323,3.5308,3.5346,3.5345,3.5368,3.5366,3.545,3.5388,3.5387,3.5387,3.5387,0,3.4526,3.4587,3.4657,3.4703,3.4773,3.4818,3.4886,3.4926,3.4981,3.5036,3.5063,3.5114,3.5165,3.5223,3.5256,3.5331,3.5346,3.5368,3.5377,3.5367,3.5365,3.5392,3.5389,3.539,3.5389,3.5389,3.5388,0,3.4559,3.4608,3.4692,3.4771,3.4792,3.484,3.4907,3.4954,3.4993,3.5062,3.5081,3.5141,3.5211,3.5258,3.5346,3.5369,3.5451,3.5457,3.543,3.5434,3.5471,3.5468,3.5576,3.5594,3.5517,3.5518,3.5519,0,3.4595,3.4644,3.4729,3.4769,3.4808,3.4871,3.4915,3.4961,3.5005,3.5083,3.5121,3.5193,3.5253,3.5364,3.5416,3.5485,3.5494,3.5527,3.5504,3.5494,3.5498,3.5495,3.5501,3.5531,3.5532,3.5532,3.5533,0,3.4657,3.468,3.4742,3.4815,3.4867,3.4925,3.4983,3.5014,3.5071,3.5119,3.5193,3.524,3.5332,3.5405,3.5479,3.5518,3.5536,3.554,3.5553,3.5544,3.5528,3.554,3.5442,3.5537,3.5537,3.5536,3.5536,3.5536,3.4694,3.474,3.4808,3.4878,3.4928,3.4983,3.5031,3.5078,3.514,3.522,3.5243,3.532,3.5385,3.5487,3.5529,3.559,3.5586,3.5604,3.5609,3.5613,3.5615,3.5517,3.5603,3.5603,3.5603,3.5603,3.5603,0,3.476,3.4806,3.4869,3.4952,3.5008,3.5021,3.5087,3.5133,3.5201,3.526,3.532,3.5406,3.5477,3.5536,3.5609,3.5647,3.5657,3.5665,3.5663,3.5673,3.5612,3.5595,3.5656,3.5656,3.5656,3.5656,3.5656,3.5656,3.48,3.4879,3.4911,3.5015,3.5061,3.5138,3.5175,3.5227,3.5275,3.537,3.543,3.5468,3.5529,3.5607,3.5674,3.5689,3.5716,3.5723,3.574,3.5683,3.5677,3.5671,3.5655,3.5727,3.5727,3.5796,3.5796,3.5797]}]]